Weather WX

World > North America > United States > Mississippi

Refuge, Mississippi Regional Weather

Lat: 33.30N, Lon: 91.14W
Wx Zone: MSZ034
Warning FLW WEATHER ALERT - FLOOD STATEMENT (More Info. Click Here) Warning
Feedback

Refuge, MS Regional Weather

Expires:201906180400;;660040
ASUS44 KJAN 180310
RWRMS 

MISSISSIPPI HOURLY WEATHER ROUNDUP
NATIONAL WEATHER SERVICE JACKSON MS
1000 PM CDT MON JUN 17 2019

NOTE: "FAIR: INDICATES FEW OR NO CLOUDS BELOW 12,000 FEET WITH NO
SIGNIFICANT WEATHER AND/OR OBSTRUCTIONS TO VISIBILITY.


MSZ001>002-007>008-010>013-018>021-025>028-034>036-180400-
NORTHWEST MISSISSIPPI
  
CITY           SKY/WX    TMP DP  RH WIND       PRES   REMARKS
BATESVILLE       N/A     72  70  94 CALM      29.94R                  
CLARKSDALE     CLOUDY    73  73 100 SE7       29.93R                  
CLEVELAND      FAIR      72  72 100 SE7       29.92R                  
GREENWOOD      FAIR      73  69  87 SE7       29.93R                  
GREENVILLE     FAIR      73  71  93 SE5       29.91R                  
OLIVE BRANCH     N/A     70  70 100 E5        29.95R                  
OXFORD         FAIR      70  70 100 CALM      29.97R                  
TUNICA           N/A     72  70  94 SE8       29.94R                  
WINONA         FAIR      71  71 100 CALM      29.95R                  
$$


SKY/WX - Weather  TMP - Temperature  DP - Dew Point  RH - Relative Humidity
WIND - Wind Direction/Speed PRES - Barometric Pressure VSB - Visibility
WCI - Wind Chill Index E13G22 Wind - East Wind 13 mph/Gusts of 22 mph